Regional Weather Roundup
Issued by NWS

Home | Current Version | Previous Version | Text Only | Print | Product List | Glossary Off
Versions: 1 2 3 4 5 6 7 8 9 10 11 12 13 14 15 16 17 18 19 20 21 22 23 24 25 26 27 28 29 30 31 32 33 34 35 36 37 38 39 40 41 42 43 44 45 46 47 48 49 50

321
ASUS45 KCYS 180310
RWRWY

WYOMING REGIONAL WEATHER ROUNDUP
NATIONAL WEATHER SERVICE CHEYENNE WY
800 PM MST TUE JAN 17 2017

NOTE:  "FAIR" INDICATES FEW OR NO CLOUDS BELOW 12,000 FEET
WITH NO SIGNIFICANT WEATHER AND/OR OBSTRUCTIONS TO VISIBILITY.

WYZ001-180400-
YELLOWSTONE NATIONAL PARK

CITY           SKY/WX    TMP DP  RH WIND       PRES   REMARKS
LK YELLOWSTONE   N/A      1  -2  87 CALM      30.12R
W YELLOWSTONE  NOT AVBL

$$
WYZ002>013-054>058-071-098>099-180400-
NORTHERN WYOMING

CITY           SKY/WX    TMP DP  RH WIND       PRES   REMARKS
JACKSON        CLEAR     -4  -6  92 CALM      30.15S
CODY           FAIR      10   5  80 S6        29.91  WCI   0
GREYBULL       FAIR      -1  -6  79 NW3       29.98F
WORLAND        FAIR       9   4  80 CALM      29.97S
SHERIDAN       FAIR      21  13  71 SE7       29.87F WCI  12
BUFFALO        FAIR      41  20  43 SW6       29.90F
GILLETTE       FAIR      37  21  52 SW18      29.89F WCI  27
HULETT         FAIR      32  19  59 SW8       29.90F WCI  25
NEWCASTLE      FAIR      27  16  63 NE3       29.95S

$$
WYZ014>020-022>026-101>103-180400-
CENTRAL WYOMING

CITY           SKY/WX    TMP DP  RH WIND       PRES   REMARKS
BIG PINEY      FAIR      -7 -11  83 CALM      30.16S
PINEDALE       FAIR      -6  -9  84 W7        30.16R WCI -20
DUBOIS         NOT AVBL
LANDER         FAIR      13   6  74 CALM      30.06S
RIVERTON       FAIR       6   0  76 W3        30.07F
CASPER         FAIR      31  11  43 SW24G31   30.01F WCI  17
DOUGLAS        FAIR      33  13  43 NW14      29.98S WCI  23

$$
WYZ021-027>030-104>119-180400-
SOUTHERN WYOMING

CITY           SKY/WX    TMP DP  RH WIND       PRES   REMARKS
EVANSTON       FAIR      20   6  55 S3        30.12F
ROCK SPRINGS   FAIR       4  -2  76 CALM      30.14F
RAWLINS        FAIR      13   6  74 S8        30.13F WCI   2
LARAMIE        FAIR      11   7  84 N6        30.07S WCI   1
CHEYENNE       FAIR      28  11  48 W9        30.00F WCI  19
TORRINGTON     FAIR      33  11  39 W5        29.97S WCI  29

$$




USA.gov is the U.S. government's official web portal to all federal, state and local government web resources and services.